Simultaneous Nadir Overpasses (SNOs) Predictions

Prediction of SNOs between GOES-17 and METOP-B Satellite Orbit:

Table of predicted SNOs for the next 14.0 days since TLE Epoch: 10/23/2021
Index Date Time (GOES-17) GOES-17 Lat,Lon METOP-B Lat,Lon Distance(km) Time Diff (sec)
1 10/23/2021 06:21:26 0.05,-137.21 0.95,-133.10 468.08 80
2 10/24/2021 18:40:18 -0.05,-137.22 0.05,-137.66 50.15 80
3 10/27/2021 06:41:19 0.04,-137.22 0.00,-137.26 6.04 80
4 10/29/2021 18:39:32 -0.03,-137.22 -0.10,-136.83 44.14 80
5 10/31/2021 06:58:32 0.03,-137.21 -0.93,-141.42 481.01 80
6 11/01/2021 06:35:12 0.03,-137.20 0.17,-136.43 87.43 80
7 11/02/2021 18:54:05 -0.03,-137.19 0.83,-140.99 433.19 80
8 11/03/2021 18:36:05 -0.03,-137.18 -0.27,-136.00 134.85 80
9 11/05/2021 06:55:06 0.03,-137.16 -0.75,-140.59 391.51 80
